Barter Island, AK

1:43 PM AKDT on May 22, 2017 (GMT -0800)
Barter Island LRRS

Weather History for PABA - September, 2013

Change the Weather History Date:

Saturday, September 14, 2013

  Actual Average Record
Temperature  
Mean Temperature 36 °F -  
Max Temperature 34 °F 35 °F 45 °F (2002)
Min Temperature 33 °F 30 °F 24 °F (1996)
Degree Days  
Heating Degree Days 29    
Moisture  
Dew Point 34 °F    
Average Humidity 95    
Maximum Humidity 100    
Minimum Humidity 86    
Precipitation  
Precipitation 0.03 in - - ()
Sea Level Pressure  
Sea Level Pressure 29.91 in    
Wind  
Wind Speed 14 mph (West)    
Max Wind Speed 23 mph    
Max Gust Speed -    
Visibility 7 miles    
Events Fog , Rain , Snow    
Averages and records for this station are not official NWS values.
T = Trace of Precipitation, MM = Missing Value Source: NWS Daily Summary

Daily Weather History Graph

Daily Weather History Graph

Search for Another Location

Airport or City:

Trip Planner

Search our weather history database for the weather conditions in past years. The results will help you decide how hot, cold, wet, or windy it might be!

Date:

Astronomy

Sep. 14, 2013 Rise Set
Actual Time 6:44 AM AKDT 8:12 PM AKDT
Civil Twilight 5:39 AM AKDT 9:16 PM AKDT
Nautical Twilight 4:08 AM AKDT 10:45 PM AKDT
Astronomical Twilight 2:02 AM AKDT 12:57 AM AKDT
Moon 7:18 PM AKDT (9/14) No Moon Set
Length of Visible Light 15h 37m
Length of Day
13h 28m
Waxing Gibbous, 74% of the Moon is Illuminated
Sep 14
Waxing Gibbous
Sep 19
Full
Sep 26
Last Quarter
Oct 4
New
Oct 11
First Quarter

Hourly Weather History & Observations

Time (AKDT) Temp. Windchill Dew Point Humidity Pressure Visibility Wind Dir Wind Speed Gust Speed Precip Events Conditions
12:01 AM 35.6 °F 27.5 °F 33.8 °F 93% 29.83 in 1.0 mi West 11.5 mph - N/A   Overcast
12:11 AM 35.6 °F 27.5 °F 33.8 °F 93% 29.83 in 0.8 mi WNW 11.5 mph - N/A Rain Light Rain
12:30 AM 33.8 °F 25.8 °F 33.8 °F 100% 29.83 in 0.5 mi WNW 10.4 mph - N/A Fog Fog
1:01 AM 35.6 °F 28.6 °F 33.8 °F 93% 29.83 in 0.8 mi NW 9.2 mph - N/A Rain Light Rain
1:15 AM 35.6 °F 28.6 °F 33.8 °F 93% 29.84 in 0.5 mi WNW 9.2 mph - N/A Fog , Rain Light Rain
1:27 AM 33.8 °F 26.4 °F 33.8 °F 100% 29.84 in 0.2 mi WNW 9.2 mph - N/A Fog , Rain Light Rain
1:34 AM 33.8 °F 26.4 °F 33.8 °F 100% 29.84 in 0.2 mi NW 9.2 mph - N/A Fog , Rain Light Rain
1:44 AM 35.6 °F 29.2 °F 33.8 °F 93% 29.85 in 0.5 mi West 8.1 mph - N/A Fog , Rain Light Rain
2:01 AM 33.8 °F 24.3 °F 33.8 °F 100% 29.85 in 1.0 mi West 13.8 mph - N/A Rain Light Rain
2:10 AM 33.8 °F 23.5 °F 33.8 °F 100% 29.86 in 2.0 mi WNW 16.1 mph - N/A Rain Rain
2:19 AM 33.8 °F 24.3 °F 32.0 °F 93% 29.86 in 5.0 mi WNW 13.8 mph - N/A   Overcast
2:33 AM 33.8 °F 23.9 °F 32.0 °F 93% 29.86 in 4.0 mi WNW 15.0 mph - N/A Snow Light Snow
2:42 AM 33.8 °F 23.5 °F 32.0 °F 93% 29.86 in 6.0 mi WNW 16.1 mph - N/A Snow Light Snow
3:01 AM 33.1 °F 23.9 °F 32.0 °F 96% 29.86 in 7.0 mi West 12.7 mph - N/A Snow Light Snow
3:46 AM 33.8 °F 23.5 °F 32.0 °F 93% 29.88 in 9.0 mi West 16.1 mph - 0.01 in Rain Light Rain
3:58 AM 33.8 °F 23.2 °F 32.0 °F 93% 29.88 in 10.0 mi West 17.3 mph - 0.01 in Rain Light Rain
4:01 AM 33.1 °F 22.2 °F 32.0 °F 96% 29.88 in 10.0 mi West 17.3 mph - 0.01 in Rain Light Rain
4:23 AM 33.8 °F 22.8 °F 32.0 °F 93% 29.89 in 6.0 mi West 18.4 mph - 0.00 in Rain Light Rain
4:34 AM 33.8 °F 23.2 °F 32.0 °F 93% 29.89 in 9.0 mi West 17.3 mph - 0.00 in Rain Light Rain
5:01 AM 33.1 °F 22.6 °F 32.0 °F 96% 29.89 in 9.0 mi West 16.1 mph - 0.01 in Rain Light Rain
5:22 AM 33.8 °F 23.9 °F 32.0 °F 93% 29.88 in 10.0 mi West 15.0 mph - 0.00 in Rain Light Rain
5:47 AM 33.8 °F 23.2 °F 33.8 °F 100% 29.88 in 9.0 mi West 17.3 mph - 0.01 in Rain Light Rain
6:01 AM 34.0 °F 23.8 °F 33.1 °F 96% 29.89 in 10.0 mi West 16.1 mph - 0.01 in   Overcast
6:15 AM 33.8 °F 23.5 °F 33.8 °F 100% 29.89 in 10.0 mi West 16.1 mph - 0.00 in   Overcast
6:52 AM 35.6 °F 25.9 °F 33.8 °F 93% 29.89 in 9.0 mi West 16.1 mph - 0.00 in Rain Light Rain
7:01 AM 35.1 °F 25.9 °F 34.0 °F 96% 29.89 in 9.0 mi West 13.8 mph - 0.00 in Rain Light Rain
8:01 AM 36.0 °F 28.0 °F 35.1 °F 97% 29.88 in 10.0 mi West 11.5 mph - 0.00 in   Overcast
8:45 AM 37.4 °F 28.9 °F 33.8 °F 87% 29.88 in 10.0 mi West 13.8 mph - N/A   Overcast
9:01 AM 37.0 °F 27.7 °F 34.0 °F 89% 29.89 in 10.0 mi West 16.1 mph - N/A   Overcast
10:01 AM 37.9 °F 28.9 °F 34.0 °F 86% 29.89 in 10.0 mi West 16.1 mph - N/A   Overcast
11:01 AM 37.9 °F 29.6 °F 34.0 °F 86% 29.89 in 10.0 mi West 13.8 mph - N/A   Mostly Cloudy
12:01 PM 39.0 °F 29.0 °F 35.1 °F 86% 29.90 in 10.0 mi West 20.7 mph - N/A   Mostly Cloudy
1:01 PM 37.0 °F 28.5 °F 34.0 °F 89% 29.91 in 10.0 mi West 13.8 mph - N/A   Partly Cloudy
1:39 PM 37.4 °F 26.6 °F 35.6 °F 93% 29.92 in 10.0 mi West 21.9 mph - N/A   Overcast
2:01 PM 37.0 °F 26.2 °F 35.1 °F 93% 29.93 in 10.0 mi West 21.9 mph - N/A   Overcast
2:09 PM 37.4 °F 27.2 °F 35.6 °F 93% 29.93 in 10.0 mi West 19.6 mph - N/A   Overcast
2:51 PM 35.6 °F 25.9 °F 35.6 °F 100% 29.93 in 7.0 mi West 16.1 mph - 0.00 in   Overcast
3:01 PM 35.6 °F 26.2 °F 35.6 °F 100% 29.93 in 9.0 mi West 15.0 mph - 0.00 in   Overcast
3:07 PM 36.0 °F 26.7 °F 35.1 °F 97% 29.93 in 7.0 mi WNW 15.0 mph - 0.00 in   Overcast
3:21 PM 35.6 °F 26.6 °F 35.6 °F 100% 29.93 in 9.0 mi WNW 13.8 mph - 0.00 in   Overcast
3:33 PM 35.6 °F 26.2 °F 35.6 °F 100% 29.93 in 10.0 mi WNW 15.0 mph - 0.00 in   Mostly Cloudy
3:54 PM 35.6 °F 26.2 °F 33.8 °F 93% 29.94 in 9.0 mi West 15.0 mph - 0.00 in   Mostly Cloudy
4:01 PM 36.0 °F 27.5 °F 34.0 °F 93% 29.94 in 7.0 mi West 12.7 mph - 0.00 in Rain Light Rain
5:38 PM 35.6 °F 25.5 °F 33.8 °F 93% 29.95 in 9.0 mi WNW 17.3 mph - N/A Rain Light Rain
5:49 PM 35.6 °F 25.2 °F 33.8 °F 93% 29.95 in 10.0 mi WNW 18.4 mph - N/A   Overcast
6:01 PM 35.1 °F 24.5 °F 33.1 °F 92% 29.95 in 10.0 mi West 18.4 mph - N/A Rain Light Rain
7:01 PM 34.0 °F 24.6 °F 33.1 °F 96% 29.96 in 10.0 mi West 13.8 mph - 0.00 in   Overcast
8:01 PM 35.1 °F 25.9 °F 33.1 °F 92% 29.96 in 10.0 mi West 13.8 mph - N/A   Overcast
8:44 PM 35.6 °F 26.2 °F 33.8 °F 93% 29.97 in 10.0 mi West 15.0 mph - N/A   Overcast
9:38 PM 33.8 °F 23.9 °F 33.8 °F 100% 29.98 in 8.0 mi West 15.0 mph - N/A Rain Light Rain
9:50 PM 33.8 °F 23.9 °F 33.8 °F 100% 29.99 in 3.0 mi West 15.0 mph - N/A Snow Light Snow
9:58 PM 33.8 °F 23.9 °F 33.8 °F 100% 29.99 in 2.5 mi West 15.0 mph - N/A Snow Light Snow
10:01 PM 33.1 °F 23.0 °F 33.1 °F 100% 29.99 in 2.0 mi West 15.0 mph - N/A Snow Light Snow
10:10 PM 33.8 °F 23.5 °F 33.8 °F 100% 29.99 in 3.0 mi West 16.1 mph - 0.00 in Snow Light Snow
10:19 PM 33.8 °F 23.5 °F 33.8 °F 100% 30.00 in 4.0 mi West 16.1 mph - 0.01 in Snow Light Snow
11:03 PM 33.8 °F 22.5 °F 33.8 °F 100% 30.00 in - West 19.6 mph - N/A Rain Light Rain
11:29 PM 33.8 °F 21.6 °F 33.8 °F 100% 30.01 in 10.0 mi West 23.0 mph - N/A Rain Light Rain